Location: Battersea Observatory
(44.4318°N, 76.3841°W)
Time: 11:21:29
(UTC-05:00)

Tiangong - Pass Details

Date: 11 December 2021
Orbit: 383 x 386 km, 41.5° (Epoch: 19 January)

Event Time Altitude Azimuth Distance (km) Brightness Sun altitude
Rises 18:32:52 0° 253° (WSW) 2,273 6.5 -21.8°
Reaches altitude 10° 18:34:59 10° 247° (WSW) 1,417 5.0 -22.1°
Enters shadow 18:37:18 36° 215° (SW) 631 2.4 -22.5°
